Starlink 33802

operational
NORAD ID: 64392 Int'l Des: 2025-127 Owner: SPXS Country: US Constellation: starlink
LEOCIRCULAR

关于 Starlink 33802

正在加载描述...

实时位置

正在加载3D地球...

即将过境

高度历史

Altitude vs Time

uPlot chart will show altitude changes over time

两行轨道根数

1 64392U 25127Y 26062.48064921 .00028769 00000-0 10500-2 0 9991
2 64392 43.0046 215.1850 0002554 280.0913 79.9650 15.27607716 41568
Epoch: Mar 3, 2026 • Age: 23 hours

当前状态

高度 487.4 km
速度 7.63 km/s
星下点 42.21°N, 143.11°E
发射日期 Jun 13, 2025
运行时间 0.7 years
类型 internet

技术详情

分类 Payload
质量 575.00 kg
干质量 530.00 kg
总质量 575.00 kg
长度 0.30 m
直径 4.10 m
跨度 29.00 m
形状 Box + pan
制造商 SPXS
平台类型 Starlink V2MO
阶段状态 In Orbit
所有者/国家 SPXS/US

大型星座

Loading constellations...